Zurück zum Katalog

STARLINK-31256

AktivKommunikationVLEO
NORAD 59161·PAYLOAD·🇺🇸 United States

Gestartet Mar 4, 2024 von Cape Canaveral Space Force Station

Loading…

Nächste Überflüge (nächste 24 Stunden)

TLE

AktuellSource: CelesTrak SupGP

Epoche: Sep 15, 2026, 02:51 UTC

1 59161C 24044K   26258.11923611  .00054361  00000+0  19690-2 0  2586
2 59161  43.0015 116.9203 0001471 275.3813 309.5359 15.27550131    16

Verfolge STARLINK-31256 in Echtzeit mit AllMySat

Download on the App Store